Weather reports worldwide

Advertisment
Kiruna Airport, Sweden (2044): temperature & dewpoint: 30.06.2020 19:00:00 - 06.07.2020 19:00:00 (CEST)Kiruna Airport, Sweden (2044): wind speed: 30.06.2020 19:00:00 - 06.07.2020 19:00:00 (CEST)Kiruna Airport, Sweden (2044): wind direction: 30.06.2020 19:00:00 - 06.07.2020 19:00:00 (CEST)Kiruna Airport, Sweden (2044): reduced air pressure: 30.06.2020 19:00:00 - 06.07.2020 19:00:00 (CEST)Kiruna Airport, Sweden (2044): visibility: 30.06.2020 19:00:00 - 06.07.2020 19:00:00 (CEST)
Date & Time tt [°C] td [°C] ff [km/h] ff [kn] dd ppp [hPa] vv [km]
06.07.2020 19:00:00 15,9 1,6 16 9 N 988,0 10
06.07.2020 18:00:00 17,0 0,6 15 8 NNW 987,3 10
06.07.2020 17:00:00 17,1 -0,2 9 5 N 987,2 10
06.07.2020 16:00:00 17,1 -0,6 13 7 N 987,1 10
06.07.2020 15:00:00 16,7 -0,1 9 5 NNW 986,9 10
06.07.2020 14:00:00 16,0 1,7 5 3 - 987,3 10
06.07.2020 13:00:00 15,1 2,3 8 4 NE 987,8 10
06.07.2020 12:00:00 14,6 2,8 8 4 E 988,1 10
06.07.2020 11:00:00 13,4 3,2 5 3 - 988,6 10
06.07.2020 10:00:00 13,1 3,7 5 3 - 988,8 10
06.07.2020 09:00:00 12,1 4,3 4 2 - 989,4 10
06.07.2020 08:00:00 10,7 3,7 4 2 - 990,2 10
06.07.2020 07:00:00 9,7 4,5 0 0 N 991,0 10
06.07.2020 06:00:00 8,7 3,7 0 0 N 991,7 10
06.07.2020 05:00:00 6,8 3,2 0 0 N 992,7 10
06.07.2020 04:00:00 5,3 3,0 8 4 SSW 993,7 10
06.07.2020 03:00:00 4,5 2,5 0 0 N 994,3 10
06.07.2020 02:00:00 4,6 2,5 4 2 - 994,8 10
06.07.2020 01:00:00 7,0 3,1 5 3 SE 994,6 10
06.07.2020 00:00:00 7,7 3,4 4 2 - 994,7 10
05.07.2020 23:00:00 9,1 3,7 9 5 SE 994,7 10
05.07.2020 22:00:00 10,8 3,6 9 5 E 994,4 10
05.07.2020 21:00:00 11,7 3,2 9 5 ESE 994,1 10
05.07.2020 20:00:00 12,5 2,9 13 7 E 994,1 10
05.07.2020 19:00:00 13,0 1,9 13 7 ENE 994,2 10
05.07.2020 18:00:00 13,1 1,4 11 6 NE 994,7 10
05.07.2020 17:00:00 12,4 1,4 11 6 N 995,3 10
05.07.2020 16:00:00 12,6 1,6 13 7 N 995,4 10
05.07.2020 15:00:00 12,0 1,9 11 6 NNW 995,7 10
05.07.2020 14:00:00 11,5 1,2 16 9 N 995,8 10
05.07.2020 13:00:00 11,3 1,8 21 11 NNW 996,0 10
05.07.2020 12:00:00 10,8 2,1 26 14 NNW 996,1 10
05.07.2020 11:00:00 9,7 1,8 21 11 N 996,6 10
05.07.2020 10:00:00 8,9 1,3 21 11 N 997,0 10
05.07.2020 09:00:00 8,7 1,6 24 13 N 997,1 10
05.07.2020 08:00:00 8,1 2,5 24 13 N 997,4 10
05.07.2020 07:00:00 7,6 3,3 18 10 N 997,8 10
05.07.2020 06:00:00 7,5 3,5 18 10 N 998,2 10
05.07.2020 05:00:00 6,5 2,8 16 9 NNE 998,8 10
05.07.2020 04:00:00 6,4 2,7 16 9 N 999,1 10
05.07.2020 03:00:00 6,9 3,3 15 8 N 999,1 10
05.07.2020 02:00:00 7,5 3,9 13 7 NNE 999,0 10
05.07.2020 01:00:00 7,4 4,2 11 6 NNE 999,3 10
05.07.2020 00:00:00 8,4 4,0 13 7 NNE 999,2 10
04.07.2020 23:00:00 9,0 3,8 13 7 NNE 999,1 10
04.07.2020 22:00:00 9,9 3,6 16 9 NNE 999,2 10
04.07.2020 21:00:00 10,2 3,7 16 9 NE 999,3 10
04.07.2020 20:00:00 10,8 4,5 18 10 NE 999,3 10
04.07.2020 19:00:00 10,9 4,6 16 9 NNE 999,5 10
04.07.2020 18:00:00 12,0 4,5 15 8 NE 999,4 10
04.07.2020 17:00:00 11,8 3,0 13 7 NNE 999,6 10
04.07.2020 16:00:00 11,2 3,0 11 6 N 999,9 10
04.07.2020 15:00:00 10,7 3,7 5 3 N 1000,2 10
04.07.2020 14:00:00 11,4 3,9 13 7 N 999,8 10
04.07.2020 13:00:00 10,3 4,2 9 5 N 1000,1 10
04.07.2020 12:00:00 10,0 4,6 13 7 N 1000,2 10
04.07.2020 11:00:00 9,1 4,7 16 9 N 1000,3 10
04.07.2020 10:00:00 8,0 4,2 15 8 N 1000,4 10
04.07.2020 09:00:00 7,8 4,2 15 8 N 1000,1 10
04.07.2020 08:00:00 7,4 4,5 18 10 NNW 1000,0 10
04.07.2020 07:00:00 7,2 5,0 18 10 N 1000,1 10
04.07.2020 06:00:00 6,6 4,8 13 7 NNW 1000,5 10
04.07.2020 05:00:00 6,2 4,5 16 9 NNW 1000,5 10
04.07.2020 04:00:00 6,3 4,8 21 11 NNW 1000,4 10
04.07.2020 03:00:00 6,7 5,8 8 4 NNW 1000,5 10
04.07.2020 02:00:00 6,7 6,0 9 5 N 1000,8 10
04.07.2020 01:00:00 6,7 6,0 8 4 N 1001,1 10
04.07.2020 00:00:00 6,9 6,0 8 4 NNE 1001,4 10
03.07.2020 23:00:00 7,6 5,9 8 4 ENE 1001,4 10
03.07.2020 22:00:00 8,6 5,7 4 2 - 1001,3 10
03.07.2020 21:00:00 8,8 5,4 8 4 ESE 1001,5 10
03.07.2020 20:00:00 9,1 5,5 0 0 N 1001,4 10
03.07.2020 19:00:00 10,4 5,0 13 7 E 1001,4 10
03.07.2020 18:00:00 12,3 0,7 8 4 ENE 1001,0 10
03.07.2020 17:00:00 12,4 1,1 11 6 ENE 1001,3 10
03.07.2020 16:00:00 13,4 -0,6 4 2 - 1000,9 10
03.07.2020 15:00:00 13,0 -0,6 9 5 E 1001,2 10
03.07.2020 14:00:00 12,6 0,7 8 4 NE 1001,4 10
03.07.2020 13:00:00 12,3 0,1 4 2 - 1001,9 10
03.07.2020 12:00:00 12,3 0,4 8 4 SE 1002,1 10
03.07.2020 11:00:00 11,4 1,3 11 6 E 1002,7 10
03.07.2020 10:00:00 10,1 0,4 5 3 E 1003,0 10
03.07.2020 09:00:00 9,8 0,1 2 1 - 1003,1 10
03.07.2020 08:00:00 9,1 0,5 4 2 - 1003,5 10
03.07.2020 07:00:00 8,1 1,0 5 3 NE 1004,0 10
03.07.2020 06:00:00 6,9 0,9 2 1 - 1004,4 10
03.07.2020 05:00:00 5,7 0,2 0 0 N 1004,6 10
03.07.2020 04:00:00 2,9 0,0 5 3 - 1005,0 10
03.07.2020 03:00:00 1,1 -0,9 5 3 - 1005,3 10
03.07.2020 02:00:00 1,7 -0,5 5 3 SW 1004,8 10
03.07.2020 01:00:00 3,6 -0,5 0 0 N 1004,0 10
03.07.2020 00:00:00 5,7 -1,0 11 6 WSW 1003,3 10
02.07.2020 23:00:00 6,7 -0,1 9 5 WSW 1003,0 10
02.07.2020 22:00:00 8,2 -0,3 13 7 W 1002,4 10
02.07.2020 21:00:00 9,5 -0,8 18 10 W 1001,7 10
02.07.2020 20:00:00 10,1 -0,6 24 13 W 1001,0 10
02.07.2020 19:00:00 10,9 -0,3 22 12 W 1000,3 10
02.07.2020 18:00:00 11,0 0,1 28 15 W 999,6 10
02.07.2020 17:00:00 10,9 0,3 16 9 W 999,0 10
02.07.2020 16:00:00 10,9 0,3 15 8 W 998,5 10
02.07.2020 15:00:00 10,0 2,6 5 3 - 998,1 10
02.07.2020 14:00:00 9,3 4,7 5 3 NNE 997,9 10
02.07.2020 13:00:00 8,0 4,2 8 4 NNE 997,6 10
02.07.2020 12:00:00 8,4 3,8 11 6 NNE 996,6 10
02.07.2020 11:00:00 9,3 3,3 4 2 - 995,5 10
02.07.2020 10:00:00 8,7 3,5 0 0 N 995,0 10
02.07.2020 09:00:00 7,8 3,6 0 0 N 994,6 10
02.07.2020 08:00:00 6,4 3,7 0 0 N 994,2 10
02.07.2020 07:00:00 5,9 3,6 2 1 - 993,7 10
02.07.2020 06:00:00 5,6 3,4 5 3 ENE 993,4 10
02.07.2020 05:00:00 5,4 2,9 0 0 N 992,8 10
02.07.2020 04:00:00 5,2 3,2 0 0 N 992,7 10
02.07.2020 03:00:00 5,3 3,5 0 0 N 992,2 10
02.07.2020 02:00:00 5,4 3,4 4 2 - 991,8 10
02.07.2020 01:00:00 5,7 3,0 0 0 N 991,4 10
02.07.2020 00:00:00 5,9 3,1 0 0 N 991,2 10
01.07.2020 23:00:00 6,2 3,4 0 0 N 990,8 10
01.07.2020 22:00:00 6,3 3,8 8 4 NNW 990,3 10
01.07.2020 21:00:00 6,9 4,2 8 4 NNW 989,7 10
01.07.2020 20:00:00 7,3 4,6 5 3 N 989,2 10
01.07.2020 19:00:00 7,5 4,6 9 5 N 988,8 10
01.07.2020 18:00:00 7,7 5,0 15 8 N 988,2 10
01.07.2020 17:00:00 8,0 5,1 24 13 N 987,6 10
01.07.2020 16:00:00 8,2 5,1 21 11 NNW 987,0 10
01.07.2020 15:00:00 8,4 5,5 21 11 NNW 986,8 10
01.07.2020 14:00:00 8,2 5,3 24 13 NNW 986,4 10
01.07.2020 13:00:00 8,0 5,8 22 12 N 986,2 10
01.07.2020 12:00:00 7,4 5,4 18 10 N 986,1 10
01.07.2020 11:00:00 7,0 5,1 18 10 N 985,9 10
01.07.2020 10:00:00 6,1 4,7 21 11 N 986,2 10
01.07.2020 09:00:00 5,3 4,3 18 10 NNW 986,5 10
01.07.2020 08:00:00 4,8 3,6 16 9 N 986,6 6
01.07.2020 07:00:00 4,5 3,6 15 8 N 986,7 10
01.07.2020 06:00:00 4,2 3,2 15 8 N 987,1 5
01.07.2020 05:00:00 4,4 2,9 16 9 N 987,2 10
01.07.2020 04:00:00 4,1 2,8 15 8 N 987,8 10
01.07.2020 03:00:00 4,1 3,0 15 8 N 988,2 10
01.07.2020 02:00:00 4,1 3,5 11 6 N 988,6 35
01.07.2020 01:00:00 4,1 3,7 16 9 N 989,0 8
01.07.2020 00:00:00 4,2 3,6 15 8 N 989,4 4,3
30.06.2020 23:00:00 4,6 3,3 15 8 N 989,8 10
30.06.2020 22:00:00 4,8 3,6 15 8 NNE 990,2 10
30.06.2020 21:00:00 4,8 3,9 13 7 N 990,4 10
30.06.2020 20:00:00 4,8 3,9 15 8 N 990,9 10
30.06.2020 19:00:00 4,8 4,2 13 7 NNE 991,1 4,1

tt = temperature
td = dewpoint
ff = wind speed
dd = wind direction
ppp = reduced air pressure
vv = visibility

Next stations